Home > Weather > Tarnów > Past weeks

Flag for Poland Weather for the Past 2 Weeks in Tarnów, Poland

Now
36 °F

Clear.


Feels Like: 31 °F
Forecast: 31 / 42 °F
Wind: 6 mph from Southwest

Location: Rzeszow-Jasionka

Current Time: Feb 12, 2016 at 12:59:33 AM

Latest Report: Feb 12, 2016 at 12:00 AM


Visibility: 10 mi

Pressure: 29.71 "Hg

Humidity: 81%

Dew point: 30 °F

Location of TarnówLocation

Historic Weather in Tarnów — Graph

°F

Tarnów Temperature Yesterday

Maximum temperature yesterday: 39 °F (at 11:00 AM)
Minimum temperature yesterday: 32 °F (at 2:00 AM)
Average temperature yesterday: 36 °F

High & Low Weather Summary for the Past Weeks

 TemperatureHumidityPressure
High54 °F (Feb 9, 1:00 PM)100% (Jan 29, 6:00 AM)30.30 "Hg (Jan 29, 6:00 AM)
Low28 °F (Feb 5, 9:30 PM)50% (Feb 7, 1:30 PM)29.15 "Hg (Feb 10, 5:30 PM)
Average40 °F78%29.91 "Hg
* Reported Jan 27 10:00 PM — Feb 11 10:00 PM, Tarnów, Weather by CustomWeather, © 2016

Note: Actual official high and low records may vary slightly from our data, if they occured in-between our weather recording intervals... More about our weather records

Advertising

Tarnów Weather History for the Previous 24 Hours

 ConditionsComfort  
Time TempWeatherWind HumidityBarometerVisibility
10:00 PM
Thu, Feb 11
34 °FClear.9 mph87%29.68 "Hg10 mi
9:30 PM36 °FClear.7 mph81%29.68 "Hg10 mi
9:00 PM37 °FClear.10 mph75%29.65 "Hg10 mi
8:30 PM36 °FClear.9 mph81%29.65 "Hg10 mi
8:00 PM37 °FClear.9 mph75%29.65 "Hg10 mi
7:30 PM37 °FPassing clouds.12 mph81%29.65 "HgN/A
7:00 PM37 °FPassing clouds.12 mph87%29.62 "HgN/A
6:30 PM36 °FPassing clouds.9 mph93%29.62 "HgN/A
6:00 PM36 °FPassing clouds.18 mph93%29.62 "HgN/A
5:30 PM36 °FSprinkles. Partly cloudy.16 mph93%29.62 "HgN/A
5:00 PM37 °FPassing clouds.17 mph87%29.59 "HgN/A
4:30 PM37 °FPartly sunny.18 mph87%29.59 "HgN/A
4:00 PM39 °FScattered clouds.23 mph81%29.56 "HgN/A
3:30 PM39 °FPartly sunny.17 mph81%29.56 "HgN/A
3:00 PM39 °FPartly sunny.20 mph87%29.53 "HgN/A
2:30 PM39 °FPartly sunny.20 mph87%29.53 "HgN/A
2:00 PM37 °FSprinkles. Broken clouds.21 mph93%29.53 "HgN/A
1:30 PM37 °FSprinkles. Broken clouds.17 mph87%29.53 "HgN/A
1:00 PM37 °FSprinkles. Broken clouds.14 mph93%29.50 "HgN/A
12:30 PM37 °FSprinkles. Partly sunny.17 mph87%29.53 "HgN/A
12:00 PM39 °FPartly sunny.21 mph81%29.50 "HgN/A
11:30 AM39 °FPartly sunny.20 mph81%29.50 "HgN/A
11:00 AM39 °FPartly sunny.20 mph87%29.50 "HgN/A
10:30 AM37 °FPartly sunny.17 mph87%29.50 "HgN/A
10:00 AM37 °FPartly sunny.16 mph87%29.50 "HgN/A
9:30 AM37 °FBroken clouds.18 mph87%29.47 "HgN/A
9:00 AM36 °FMore clouds than sun.16 mph93%29.47 "HgN/A
8:30 AM36 °FMore clouds than sun.15 mph93%29.47 "HgN/A
8:00 AM36 °FLight rain. Mostly cloudy.14 mph93%29.45 "Hg4 mi
7:30 AM34 °FLight rain. Fog.14 mph100%29.45 "Hg2 mi
7:00 AM34 °FLight rain. Fog.14 mph100%29.45 "Hg2 mi
6:30 AM34 °FLight rain. Fog.14 mph93%29.42 "Hg2 mi
6:00 AM34 °FLight rain. Fog.17 mph100%29.42 "Hg3 mi
5:30 AM34 °FLight rain. Partly cloudy.16 mph100%29.42 "Hg4 mi
5:00 AM34 °FLight rain. Partly cloudy.15 mph100%29.39 "Hg4 mi
4:30 AM34 °FLight rain. Passing clouds.14 mph93%29.39 "Hg4 mi
4:00 AM34 °FLight rain. Partly cloudy.14 mph93%29.39 "Hg4 mi
3:00 AM34 °FLight snow. Fog.20 mph93%29.33 "Hg2 mi
2:30 AM32 °FSnow. Ice fog.23 mph100%29.33 "Hg1 mi
2:00 AM32 °FSnow. Ice fog.21 mph100%29.30 "Hg1 mi
1:00 AM34 °FLight rain. Passing clouds.17 mph93%29.30 "Hg4 mi
12:30 AM34 °FLight rain. Passing clouds.20 mph93%29.27 "HgN/A
12:00 AM34 °FLight rain. Partly cloudy.18 mph93%29.24 "HgN/A
Weather by CustomWeather, © 2016

See weather overviewHow to use our weather pages